Vertical_Velocity
2 8 3 -0 8 1 2 -0 4 4 5 5 -6 1 2 3 -1 -3 -0 2 2 -1 1 -1 3 1 1 2 1 1 -4 -1 -4 -0 -0 -1 -2 -3 1 -2 -2 0 -1
9 13 6 7 7 1 -5 11 -14 0 -2 2 -3 -0 4 0 -3 -2 0 0 3 6 -3 -2 4 -2 1 3 1 -2 -1 -1 -2 -1 -1 2 2 -5 -2 -2 -2 -1 0
5 9 12 1 -10 -7 -0 0 1 -13 3 -0 0 0 4 -1 -2 0 -2 -3 -0 1 5 -2 -4 3 1 1 0 2 -1 -1 -2 -2 -2 -2 3 -0 1 -1 -0 -1 -1
3 6 7 10 11 7 12 19 17 1 -4 2 5 3 0 -0 1 0 2 -2 1 -2 0 4 -1 -1 1 -1 0 1 -0 0 -1 -2 -1 -1 1 2 0 -1 -1 -1 -0
4 -1 12 8 8 9 3 5 29 7 2 7 -2 1 1 3 2 1 -2 1 4 1 -2 5 -1 3 2 0 -2 0 -1 0 -0 -1 -2 -0 1 -1 1 1 1 -1 -2
-0 2 4 -6 20 17 -9 14 14 8 12 -3 -3 2 3 5 6 -2 -6 3 0 2 -3 6 4 -1 4 0 -0 -3 -1 0 -1 1 -3 -1 1 0 1 -1 1 1 -1
3 -1 5 10 12 4 4 26 -1 1 8 3 -3 10 10 7 -7 3 -1 -2 2 -2 0 1 1 3 3 1 2 -2 -2 -1 -2 1 -1 0 0 -1 0 -0 -0 -2 -3
4 8 1 2 2 -1 2 1 -1 11 12 6 -11 28 -7 9 -9 3 -1 -1 -0 -1 1 -0 2 2 2 1 -1 -2 -2 -0 -2 -1 -0 0 -1 0 -1 1 1 -3 -4
5 -1 2 -2 -4 4 -6 -11 -0 -4 -2 -6 9 3 20 7 0 5 1 2 4 -3 0 0 -1 2 3 1 -1 -2 -1 1 -1 -2 1 -1 -1 -0 -1 1 -1 1 1
6 5 3 4 2 0 2 4 4 4 2 10 22 -13 7 3 1 -2 -3 -1 3 1 2 1 2 3 0 -0 3 -1 0 1 -1 -1 0 -2 -2 -1 2 1 1 -2 -1
4 6 6 4 3 5 1 3 6 -2 -2 6 -0 13 4 6 -2 -3 -0 2 3 1 -1 0 2 3 0 2 -0 -1 0 0 -0 -0 -2 -1 -1 2 1 1 -1 -3 -1
1 -0 -2 -1 1 1 -1 0 0 -1 -3 1 -1 6 9 1 -1 -1 1 8 2 -2 2 4 -1 1 2 3 -2 -0 1 -2 -1 -1 -1 0 1 1 0 -2 -0 -0 -2
-1 -1 -2 -2 -0 -0 0 -1 -4 -6 -8 -7 1 4 3 -2 2 2 2 1 2 1 4 4 7 -3 2 -3 2 0 -1 1 -0 -1 1 3 2 0 -2 1 0 1 1
-2 -3 -4 -2 -4 -3 -1 -0 1 -1 2 1 -0 0 4 3 -0 3 4 2 3 2 4 6 1 -4 -1 3 -2 0 2 1 0 -0 2 1 -1 2 2 1 1 -3 0
-1 -1 -2 -5 -3 -1 -1 0 0 1 -0 2 3 0 3 5 10 9 5 4 7 8 2 -3 -2 2 4 2 1 1 0 -0 -0 3 2 -1 1 1 2 -0 1 -1 -6
-1 -0 1 1 2 0 1 0 0 2 1 2 1 1 2 -1 -3 -0 -0 0 -1 -2 -5 1 3 2 2 3 0 3 1 -1 2 2 0 0 3 1 4 3 -2 -6 -2
1 1 2 2 2 2 1 -1 -2 -4 -6 -4 -1 -2 -3 -4 -4 -4 -6 -1 5 -5 -2 3 4 3 2 -1 -2 0 1 1 1 -2 1 3 5 5 3 -1 -5 -2 -2
1 2 1 -1 0 1 2 1 -1 -1 -2 -0 -0 2 6 5 6 5 7 2 1 -7 2 3 3 -0 -2 0 2 1 3 1 -1 2 1 -1 2 4 -4 -2 -0 -2 -4
-4 -4 -0 3 6 6 3 0 -1 -1 -2 -1 -1 1 2 3 3 4 -0 1 6 1 4 2 0 -0 5 0 1 2 -1 0 1 -0 4 4 -1 -6 -1 -0 1 1 -2
-0 -0 -1 -1 -2 -1 1 1 1 3 3 2 1 1 3 3 6 5 2 2 -0 1 2 3 4 2 2 4 1 0 0 1 2 1 -2 -1 -1 -3 -0 3 1 0 1
1 0 -1 -0 -1 -0 -1 -2 -1 -1 -0 1 3 2 2 1 1 -1 -1 -1 -0 0 0 1 1 2 2 1 0 1 0 -0 -3 -1 0 -1 -1 -3 2 2 4 1 -1
-3 -1 -1 -1 -0 -1 -2 -3 -2 0 0 1 -0 0 -0 0 -1 -0 2 3 2 1 1 1 -0 -1 3 2 2 3 0 -0 1 0 -2 -1 -3 3 0 -3 3 1 2
-1 -2 -2 -2 -2 -3 -3 -3 -3 -4 -5 -5 -4 -1 -0 1 1 -1 -2 -1 -1 -1 0 -0 1 1 0 2 0 1 -1 2 4 3 -0 -3 -1 3 1 2 -2 2 -2
0 -0 -0 -1 -1 0 -0 0 -1 -1 -1 -0 -1 -1 -1 -3 -2 0 1 1 0 -1 -3 -3 -0 1 2 1 -0 0 0 5 2 -2 -0 0 2 2 -0 -1 1 -0 -2
-1 -2 -1 -1 -1 -2 -0 0 -0 -1 -1 -1 0 1 1 -1 0 -0 -1 -3 -1 0 6 2 3 -2 1 -0 6 3 9 -7 -1 -0 7 0 1 3 1 -1 -1 -3 -2
-2 -2 -3 -3 -0 -1 -1 1 3 2 1 0 1 -1 -1 -0 1 -1 -0 1 1 -2 -2 1 5 3 2 -1 0 2 1 2 0 1 2 -0 2 1 1 -1 -1 0 -1
Height
3053 3059 3063 3071 3075 3079 3083 3086 3089 3091 3094 3096 3098 3100 3101 3101 3102 3103 3105 3105 3106 3106 3106 3106 3106 3106 3105 3105 3104 3104 3104 3103 3103 3102 3101 3101 3100 3099 3099 3098 3097 3096 3094
3044 3048 3055 3061 3065 3069 3073 3076 3083 3086 3087 3088 3091 3093 3094 3096 3096 3098 3099 3099 3099 3100 3100 3100 3100 3100 3100 3099 3099 3098 3098 3098 3097 3097 3096 3096 3095 3094 3093 3092 3092 3091 3089
3035 3040 3043 3050 3053 3059 3065 3069 3072 3077 3079 3082 3082 3086 3088 3089 3089 3090 3092 3093 3095 3094 3093 3093 3093 3093 3093 3092 3092 3091 3091 3091 3092 3092 3091 3090 3090 3089 3087 3086 3085 3085 3084
3026 3031 3036 3040 3047 3053 3054 3057 3061 3067 3071 3073 3075 3078 3080 3081 3082 3083 3085 3086 3087 3087 3088 3086 3086 3086 3086 3085 3085 3085 3085 3085 3084 3085 3085 3084 3084 3083 3081 3080 3079 3079 3078
3018 3022 3026 3031 3037 3041 3044 3045 3047 3057 3061 3065 3066 3069 3071 3072 3074 3076 3078 3079 3080 3079 3081 3080 3080 3079 3079 3078 3078 3078 3078 3078 3078 3078 3078 3078 3077 3077 3076 3075 3073 3072 3072
3011 3014 3018 3024 3019 3027 3033 3031 3039 3046 3050 3054 3058 3060 3062 3064 3067 3068 3069 3071 3072 3072 3073 3073 3073 3073 3072 3071 3070 3070 3071 3071 3071 3071 3071 3071 3071 3071 3070 3070 3068 3067 3066
3003 3007 3011 3014 3016 3019 3021 3022 3030 3035 3040 3043 3047 3050 3054 3057 3058 3059 3060 3062 3064 3064 3066 3066 3066 3066 3065 3064 3062 3063 3063 3064 3064 3064 3064 3064 3064 3064 3063 3063 3062 3060 3059
2997 3000 3003 3007 3009 3011 3012 3016 3019 3024 3029 3033 3035 3038 3042 3045 3049 3049 3052 3053 3054 3056 3058 3059 3059 3059 3058 3056 3055 3056 3056 3056 3056 3057 3057 3057 3057 3057 3057 3056 3055 3054 3051
2990 2993 2997 2999 3002 3004 3005 3008 3012 3013 3018 3022 3023 3025 3028 3033 3037 3040 3042 3044 3046 3047 3049 3050 3052 3052 3050 3049 3048 3048 3049 3049 3049 3049 3050 3051 3051 3050 3049 3048 3047 3046 3046
2983 2985 2988 2990 2993 2994 2995 2997 3000 3005 3010 3013 3016 3021 3022 3025 3026 3028 3034 3035 3037 3039 3041 3043 3044 3043 3042 3042 3041 3041 3042 3042 3042 3043 3043 3044 3043 3042 3042 3040 3039 3037 3036
2977 2978 2979 2981 2982 2983 2985 2987 2990 2994 3000 3004 3008 3010 3012 3015 3016 3020 3025 3027 3028 3031 3032 3035 3035 3034 3034 3034 3034 3034 3034 3034 3035 3036 3036 3035 3035 3035 3034 3033 3031 3030 3027
2973 2974 2975 2975 2976 2977 2978 2981 2983 2986 2990 2995 2997 2999 3001 3005 3008 3011 3015 3018 3019 3021 3025 3025 3026 3026 3026 3025 3026 3026 3026 3026 3028 3028 3027 3027 3028 3028 3027 3026 3024 3022 3020
2970 2971 2971 2971 2972 2973 2973 2974 2977 2980 2984 2986 2989 2990 2993 2996 3000 3003 3006 3009 3010 3012 3015 3017 3014 3016 3017 3017 3017 3016 3017 3019 3019 3019 3019 3020 3020 3021 3020 3019 3016 3013 3011
2966 2967 2967 2967 2967 2967 2968 2969 2971 2973 2976 2979 2980 2983 2986 2989 2992 2995 2998 2999 3001 3003 3005 3004 3003 3004 3006 3007 3006 3007 3008 3009 3009 3010 3011 3012 3012 3013 3012 3010 3008 3005 3004
2959 2959 2958 2960 2960 2959 2960 2961 2963 2965 2967 2969 2972 2975 2978 2981 2986 2986 2987 2989 2992 2994 2993 2991 2993 2994 2995 2996 2997 2999 2999 2999 3000 3001 3002 3003 3004 3004 3003 3001 2999 2997 2996
2951 2951 2951 2951 2951 2952 2953 2954 2955 2957 2958 2960 2963 2965 2967 2969 2971 2973 2975 2977 2978 2978 2978 2980 2982 2982 2983 2985 2986 2988 2989 2990 2991 2991 2992 2993 2994 2994 2993 2992 2989 2988 2985
2943 2944 2944 2944 2944 2945 2946 2947 2948 2949 2949 2951 2953 2954 2955 2957 2959 2961 2962 2963 2965 2965 2967 2969 2970 2972 2973 2973 2975 2978 2980 2980 2980 2979 2981 2984 2984 2984 2983 2981 2981 2978 2976
2935 2936 2936 2937 2937 2938 2939 2939 2939 2941 2941 2943 2944 2945 2946 2947 2948 2950 2951 2953 2955 2954 2957 2958 2959 2960 2961 2963 2967 2968 2969 2969 2968 2969 2971 2973 2974 2974 2974 2973 2971 2968 2965
2929 2930 2930 2930 2930 2931 2931 2932 2933 2933 2934 2935 2936 2937 2938 2938 2939 2940 2941 2942 2945 2946 2948 2948 2949 2951 2954 2955 2957 2957 2957 2957 2958 2959 2962 2963 2964 2964 2964 2963 2960 2957 2954
2925 2925 2925 2924 2924 2924 2925 2925 2925 2926 2927 2927 2928 2929 2929 2930 2930 2932 2933 2934 2935 2936 2938 2939 2941 2942 2943 2945 2946 2946 2946 2946 2947 2950 2952 2954 2955 2955 2955 2953 2951 2949 2945
2923 2922 2921 2921 2920 2919 2919 2919 2919 2920 2920 2920 2920 2920 2920 2921 2921 2922 2922 2923 2925 2926 2927 2929 2930 2932 2934 2935 2935 2935 2935 2937 2939 2941 2943 2944 2945 2945 2944 2943 2940 2938 2934
2919 2919 2919 2918 2917 2917 2916 2915 2914 2914 2913 2913 2913 2913 2913 2913 2913 2914 2915 2915 2916 2917 2918 2919 2920 2922 2923 2923 2923 2924 2926 2929 2931 2933 2934 2936 2936 2936 2934 2934 2932 2928 2924
2915 2914 2914 2914 2913 2912 2911 2911 2910 2910 2909 2908 2907 2906 2906 2906 2906 2906 2906 2906 2906 2907 2908 2909 2910 2911 2911 2912 2914 2916 2919 2921 2923 2924 2925 2927 2927 2926 2925 2923 2921 2918 2915
2910 2909 2908 2907 2906 2906 2905 2904 2903 2902 2902 2901 2900 2899 2898 2897 2897 2897 2897 2897 2898 2898 2899 2900 2901 2902 2903 2904 2906 2908 2911 2914 2914 2916 2917 2917 2917 2916 2915 2913 2911 2909 2906
2903 2902 2900 2899 2898 2897 2896 2896 2895 2894 2893 2893 2892 2892 2891 2890 2889 2889 2888 2888 2889 2890 2891 2892 2892 2894 2896 2898 2900 2901 2902 2903 2906 2907 2907 2907 2907 2907 2905 2904 2902 2900 2897
2893 2891 2889 2888 2887 2886 2885 2885 2884 2883 2883 2882 2882 2882 2882 2882 2882 2881 2882 2882 2882 2882 2884 2885 2886 2887 2888 2891 2893 2894 2894 2896 2897 2898 2898 2897 2898 2897 2896 2895 2893 2891 2888